#timestamp,LO_Frequency,Hit,StdDev 
1621238415.1,286047002.3,N
1621238416.0,286047002.3,N
1621238435.8,286047002.0,N
1621238455.7,286047003.8,N
1621238475.5,286047003.2,N
1621238495.3,286047002.0,N
1621238515.2,286047001.4,N
1621238535.0,286047001.7,N
1621238535.9,286047001.7,N
1621238555.8,286047002.3,N
1621238575.6,286047002.8,N
1621238595.4,286047001.0,N
1621238615.3,286046998.5,N
1621238635.1,286046999.4,N
1621238655.9,286046998.2,N
1621238675.7,286047001.1,N
1621238695.5,286046998.2,N
1621238715.4,286047000.4,N
1621238735.2,286046998.9,N
1621238755.0,286046998.7,N
1621238755.9,286046998.7,N
1621238775.8,286047000.9,N
1621238795.6,286047000.9,N
1621238815.5,286047004.2,N
1621238835.3,286047005.5,Y
1621238855.1,286047007.5,P
1621238875.9,286047010.5,P
1621238895.7,286047007.7,N
1621238915.6,286047008.0,N
1621238935.4,286047008.6,N
1621238955.2,286047008.3,N
1621238975.1,286047006.5,N
1621238976.0,286047006.5,N
1621238995.8,286047005.2,N
1621239015.6,286047001.8,N
1621239035.5,286047002.3,N
1621239055.3,286047004.3,N
1621239075.2,286047009.2,Y
1621239095.9,286047004.1,P
1621239115.7,286047004.1,P
1621239135.6,286047002.0,N
1621239155.4,286047001.0,N
1621239175.3,286046998.3,N
1621239195.1,286046998.8,N
1621239196.0,286046998.8,N
1621239215.8,286047000.8,N
1621239235.7,286047000.0,N
1621239255.5,286047002.0,N
1621239275.3,286047004.4,N
1621239295.2,286047004.1,N
1621239315.0,286047010.7,Y
1621239315.9,286047010.7,P
1621239335.8,286047006.2,N
1621239355.6,286047006.3,N
1621239375.4,286047004.9,N
1621239395.3,286047001.3,N
1621239415.1,286047000.2,N
1621239435.8,286046999.8,N
1621239455.7,286047001.0,N
1621239475.5,286047001.2,N
1621239495.4,286047000.8,N
1621239515.2,286047001.4,N
1621239535.0,286047000.9,N
1621239535.9,286047000.9,N
1621239555.8,286047000.6,N
1621239575.6,286047001.2,N
1621239595.4,286046999.2,N
1621239615.3,286046997.3,N
1621239635.1,286046996.6,N
1621239655.9,286046997.0,N
1621239675.7,286046998.7,N
1621239695.5,286047000.7,N
1621239715.4,286047000.0,N
1621239735.2,286047002.6,N
1621239755.0,286047002.4,N
1621239755.9,286047002.4,N
1621239775.8,286047001.6,N
1621239795.6,286047000.2,N
1621239815.5,286047002.0,N
1621239835.3,286047002.6,N
1621239855.1,286046999.3,N
1621239875.9,286046997.7,N
1621239895.7,286046994.9,N
1621239915.5,286046993.7,N
1621239935.4,286046996.3,N
1621239955.2,286046993.4,N
1621239975.1,286046994.2,N
1621239976.0,286046994.2,N
1621239995.8,286046994.4,N
1621240015.6,286046993.8,N
1621240035.5,286046995.9,N
1621240055.3,286046999.1,N
1621240075.2,286046995.5,N
1621240095.9,286046996.2,N
1621240115.7,286046993.8,N
1621240135.6,286046993.9,N
1621240155.4,286046993.5,N
1621240175.2,286046994.8,N
1621240195.1,286046994.3,N
1621240196.0,286046994.3,N
1621240215.8,286046993.9,N
1621240235.7,286046992.2,N
1621240255.5,286046994.5,N
1621240275.3,286046993.5,N
1621240295.2,286046992.1,N
1621240315.0,286046992.0,N
1621240315.9,286046992.0,N
1621240335.7,286046993.9,N
1621240355.6,286046993.3,N
1621240375.4,286046995.5,N
1621240395.3,286046995.1,N
1621240415.1,286046995.1,Y
1621240416.0,286046995.1,P
1621240435.8,286047001.9,P
1621240455.7,286047001.5,N
1621240475.5,286047003.1,N
1621240495.3,286047006.4,N
1621240515.2,286047004.5,N
1621240535.0,286047004.5,N
1621240535.9,286047004.5,N
1621240555.8,286047004.9,N
1621240575.6,286047004.9,N
1621240595.4,286047006.2,N
1621240615.3,286047006.0,N
1621240635.1,286047004.4,N
1621240655.9,286047001.4,N
1621240675.7,286047001.7,N
1621240695.5,286047004.5,N
1621240715.4,286047004.6,N
1621240735.2,286047006.4,N
1621240755.0,286047007.5,N
1621240755.9,286047007.5,N
1621240775.8,286047008.8,N
1621240795.6,286047006.2,N
1621240815.5,286047007.2,N
1621240835.3,286047004.5,N
1621240855.1,286047005.0,N
1621240875.9,286047005.0,N
1621240895.7,286047005.5,N
1621240915.5,286047005.4,N
1621240935.4,286047005.8,N
1621240955.2,286047005.6,N
1621240975.1,286047003.6,N
1621240976.0,286047003.6,N
1621240995.8,286047003.6,N
1621241015.6,286047003.8,N
1621241035.5,286047003.2,N
1621241055.3,286047005.1,Y
1621241075.2,286047002.5,P
1621241095.9,286046999.9,N
1621241115.7,286047001.3,N
1621241135.6,286047004.2,N
1621241155.4,286047004.4,N
1621241175.2,286047004.0,N
1621241195.1,286047004.7,N
1621241196.0,286047004.7,N
1621241215.8,286047003.5,N
1621241235.7,286047004.0,N
1621241255.5,286047004.0,N
1621241275.3,286047006.0,Y
1621241295.2,286047000.4,P
1621241315.0,286046996.9,N
1621241315.9,286046996.9,N
1621241335.7,286046996.6,N
1621241355.6,286047000.6,N
1621241375.4,286047001.5,N
1621241395.3,286047005.2,N
1621241415.1,286047005.1,N
1621241416.0,286047005.1,N
1621241435.8,286047007.3,N
1621241455.7,286047007.4,N
1621241475.5,286047005.1,N
1621241495.4,286047012.8,Y
1621241515.2,286047006.9,P
1621241535.0,286047004.1,N
1621241535.9,286047004.1,N
1621241555.8,286047002.4,N
1621241575.6,286047000.7,N
1621241595.4,286047000.5,N
1621241615.3,286046997.4,N
1621241635.1,286046996.3,N
1621241655.9,286046995.2,N
1621241675.7,286046996.9,N
1621241695.5,286046998.8,N
1621241715.4,286047001.2,N
1621241735.2,286046996.8,N
1621241755.0,286046994.9,N
1621241756.0,286046994.9,N
1621241775.8,286047002.7,N
1621241795.6,286046999.0,N
1621241815.5,286046999.3,N
1621241835.3,286046997.4,N
1621241855.1,286046996.3,N
1621241875.9,286046996.1,N
1621241895.7,286046994.3,N
1621241915.6,286046993.9,N
1621241935.4,286046995.6,N
1621241955.2,286046993.7,N
1621241975.1,286046992.1,N
1621241976.0,286046992.1,N
1621241995.8,286046991.8,N
